This demonstration page uses our WeatherBlox Daily Observations layout. Learn more.

Left ArrowRight Arrow

39.01783, -85.05884

Hourly Observations for March 29, 2020

Temp ( °F °C ) Dew Point ( °F °C ) Humidity (%) Winds ( mph kmh ) Pressure ( in mb ) Visibility ( mi km ) Precip ( " mm )
12:04 am 00:04 Cloudy with Strong Thunderstorms 68 20 63 17.2 84 84 SW 13 20 29.80 1009 3 4 0.06 1.52
12:30 am 00:30 Cloudy with Thunderstorms 65 18.3 61 16.1 87 87 SSW 10 17 29.75 1008 4 6 0.31 7.87
12:48 am 00:48 Partly Cloudy 64 18 61 16 88 88 SSE 10 17 29.71 1006 10 16 0.32 8.13
12:52 am 00:52 Mostly Clear 65 18.3 61 16.1 87 87 SSE 10 17 29.70 1006 10 16 0.32 8.13
1:52 am 01:52 Cloudy 64 17.8 61 16.1 90 90 S 10 17 29.70 1006 10 16 0.00 0.00
2:52 am 02:52 Cloudy 65 18.3 60 15.6 84 84 S 13 20 29.65 1004 10 16 0.00 0.00
3:52 am 03:52 Cloudy 65 18.3 59 15 81 81 S 13 20 29.62 1003 10 16 0.00 0.00
4:52 am 04:52 Cloudy 66 18.9 59 15 78 78 SSW 16 26 29.62 1003 10 16 0.00 0.00
5:52 am 05:52 Cloudy 66 18.9 58 14.4 75 75 SSW 15 24 29.63 1004 10 16 0.00 0.00
6:52 am 06:52 Partly Cloudy 65 18.3 57 13.9 76 76 SSW 16 26 29.65 1004 10 16 0.00 0.00
7:52 am 07:52 Mostly Cloudy 64 17.8 54 12.2 70 70 SW 14 22 29.67 1005 10 16 0.00 0.00
8:52 am 08:52 Partly Cloudy 65 18.3 51 10.6 61 61 SW 23 37 29.68 1005 10 16 0.00 0.00
9:52 am 09:52 Mostly Sunny 64 17.8 38 3.3 38 38 WSW 24 39 29.70 1006 10 16 0.00 0.00
10:52 am 10:52 Mostly Sunny 64 17.8 38 3.3 38 38 WSW 24 39 29.73 1007 10 16 0.00 0.00
11:52 am 11:52 Partly Cloudy 66 18.9 40 4.4 39 39 SW 23 37 29.76 1008 10 16 0.00 0.00
12:52 pm 12:52 Partly Cloudy 64 17.8 42 5.6 45 45 WSW 24 39 29.80 1009 10 16 0.00 0.00
1:52 pm 13:52 Mostly Sunny 63 17.2 40 4.4 43 43 WSW 24 39 29.83 1010 10 16 0.00 0.00
2:52 pm 14:52 Mostly Sunny 64 17.8 39 3.9 40 40 SW 21 33 29.85 1011 10 16 0.00 0.00
3:52 pm 15:52 Mostly Sunny 65 18.3 39 3.9 39 39 SW 22 35 29.85 1011 10 16 0.00 0.00
4:52 pm 16:52 Mostly Sunny 65 18.3 38 3.3 37 37 SW 21 33 29.86 1011 10 16 0.00 0.00
5:52 pm 17:52 Mostly Sunny 66 18.9 39 3.9 37 37 SW 14 22 29.88 1012 10 16 0.00 0.00
6:52 pm 18:52 Partly Cloudy 64 17.8 36 2.2 35 35 WSW 17 28 29.90 1012 10 16 0.00 0.00
7:52 pm 19:52 Partly Cloudy 62 16.7 34 1.1 35 35 W 14 22 29.93 1013 10 16 0.00 0.00
8:52 pm 20:52 Partly Cloudy 61 16.1 36 2.2 39 39 W 14 22 29.96 1014 10 16 0.00 0.00
9:52 pm 21:52 Mostly Clear 60 15.6 33 0.6 36 36 WSW 14 22 29.98 1015 10 16 0.00 0.00
10:52 pm 22:52 Mostly Clear 58 14.4 31 -0.6 36 36 WSW 10 17 29.99 1016 10 16 0.00 0.00
11:52 pm 23:52 Clear 56 13.3 32 0 40 40 WSW 8 13 30.00 1016 10 16 0.00 0.00

Powered by AerisWeather